EHI
0 0 0 0 0 0 0 0 0 0 0 0 0 0 0 0 0 0 0 0 0 0 0 0 0 0 0 0 0 0 0 0 0 0 0 0 0 0 0 0 0 0 0 0
0 0 0 0 0 0 0 0 0 0 0 0 0 0 0 0 0 0 0 0 0 0 0 0 0 0 0 0 0 0 0 0 0 0 0 0 0 0 0 0 0 0 0 0
0 0 0 0 0 0 0 0 0 0 0 0 0 0 0 0 0 0 0 0 0 0 0 0 0 0 0 0 0 0 0 0 0 0 0 0 0 0 0 0 0 0 0 0
0 0 0 0 0 0 0 0 0 0 0 0 0 0 0 0 0 0 0 0 0 0 0 0 0 0 0 0 0 0 0 0 0 0 0 0 0 0 0 0 0 0 0 0
0 0 0 0 0 0 0 0 0 0 0 0 0 0 0 0 0 0 0 0 0 0 0 0 0 0 0 0 0 0 0 0 0 0 0 0 0 0 0 0 0 0 0 0
0 0 0 0 0 0 0 0 0 0 0 0 0 0 0 0 0 0 0 0 0 0 0 0 0 0 0 0 0 0 0 0 0 0 0 0 0 0 0 0 0 0 0 0
0 0 0 0 0 0 0 0 0 0 0 0 0 0 0 0 0 0 0 0 0 0 0 0 0 0 0 0 0 0 0 0 0 0 0 0 0 0 0 0 0 0 0 0
0 0 0 0 0 0 0 0 0 0 0 0 0 0 0 0 0 0 0 0 0 0 0 0 0 0 0 0 0 0 0 0 0 0 0 0 0 0 0 0 0 0 0 0
0 0 0 0 0 0 0 0 0 0 0 0 0 0 0 0 0 0 0 0 0 0 0 0 0 0 0 0 0 0 0 0 0 0 0 0 0 0 0 0 0 0 0 0
0 0 0 0 0 0 0 0 0 0 0 0 0 0 0 0 0 0 0 0 0 0 0 0 0 0 0 0 0 0 0 0 0 0 0 0 0 0 0 0 0 0 0 0
0 0 0 0 0 0 0 0 0 0 0 0 0 0 0 0 0 0 0 0 0 0 0 0 0 0 0 0 0 0 0 0 0 0 0 0 0 0 0 0 0 0 0 0
0 0 0 0 0 0 0 0 0 0 0 0 0 0 0 0 0 0 0 0 0 0 0 0 0 0 0 0 0 0 0 0 0 0 0 0 0 0 0 0 0 0 0 0
0 0 0 0 0 0 0 0 0 0 0 0 0 0 0 0 0 0 0 0 0 0 0 0 0 0 0 0 0 0 0 0 0 0 0 0 0 0 0 0 0 0 0 0
0 0 0 0 0 0 0 0 0 0 0 0 0 0 0 0 0 0 0 0 0 0 0 0 0 0 0 0 0 0 0 0 0 0 0 0 0 0 0 0 0 0 0 0
0 0 0 0 0 0 0 0 0 0 0 0 0 0 0 0 0 0 0 0 0 0 0 0 0 0 0 0 0 0 0 0 0 0 0 0 0 0 0 0 0 0 0 0
0 0 0 0 0 0 0 0 0 0 0 0 0 0 0 0 0 0 0 0 0 0 0 0 0 0 0 0 0 0 0 0 0 0 0 0 0 0 0 0 0 0 0 0
0 0 0 0 0 0 0 0 0 0 0 0 0 0 0 0 0 0 0 0 0 0 0 0 0 0 0 0 0 0 0 0 0 0 0 0 0 0 0 0 0 0 0 0
0 0 0 0 0 0 0 0 0 0 0 0 0 0 0 0 0 0 0 0 0 0 0 0 0 0 0 0 0 0 0 0 0 0 0 0 0 0 0 0 0 0 0 0
0 0 0 0 0 0 0 0 0 0 0 0 0 0 0 0 0 0 0 0 0 0 0 0 0 0 0 0 0 0 0 0 0 0 0 0 0 0 0 0 0 0 0 0
0 0 0 0 0 0 0 0 0 0 0 0 0 0 0 0 0 0 0 0 0 0 0 0 0 0 0 0 0 0 0 0 0 0 0 0 0 0 0 0 0 0 0 0
0 0 0 0 0 0 0 0 0 0 0 0 0 0 0 0 0 0 0 0 0 0 0 0 0 0 0 0 0 0 0 0 0 0 0 0 0 0 0 0 0 0 0 0
0 0 0 0 0 0 0 0 0 0 0 0 0 0 0 0 0 0 0 0 0 0 0 0 0 0 0 0 0 0 0 0 0 0 0 0 0 0 0 0 0 0 0 0
0 0 0 0 0 0 0 0 0 0 0 0 0 0 0 0 0 0 0 0 0 0 0 0 0 0 0 0 0 0 0 0 0 0 0 0 0 0 0 0 0 0 0 0
0 0 0 0 0 0 0 0 0 0 0 0 0 0 0 0 0 0 0 0 0 0 0 0 0 0 0 0 0 0 0 0 0 0 0 0 0 0 0 0 0 0 0 0
0 0 0 0 0 0 0 0 0 0 0 0 0 0 0 0 0 0 0 0 0 0 0 0 0 0 0 0 0 0 0 0 0 0 0 0 0 0 0 0 0 0 0 0
0 0 0 0 0 0 0 0 0 0 0 0 0 0 0 0 0 0 0 0 0 0 0 0 0 0 0 0 0 0 0 0 0 0 0 0 0 0 0 0 0 0 0 0
0 0 0 0 0 0 0 0 0 0 0 0 0 0 0 0 0 0 0 0 0 0 0 0 0 0 0 0 0 0 0 0 0 0 0 0 0 0 0 0 0 0 0 0
Wind_Speed
1 1 3 5 7 10 11 8 7 6 9 11 8 6 4 4 5 6 6 6 6 5 4 3 3 2 2 3 2 3 3 4 5 6 5 6 6 7 7 8 8 7 7 7
5 4 5 7 9 10 11 10 10 11 11 5 3 3 3 4 5 6 7 6 6 5 5 4 3 2 2 2 2 2 3 4 4 5 5 5 6 6 7 7 7 7 7 7
4 4 5 9 9 11 8 9 8 7 4 3 4 4 4 3 5 6 6 6 6 6 5 4 3 2 2 1 1 2 2 2 3 4 4 5 5 6 6 6 7 8 8 7
3 5 6 3 3 4 7 6 8 9 7 6 6 5 5 4 5 5 6 6 6 6 5 5 3 3 2 2 2 2 2 2 2 3 4 4 5 5 6 6 6 6 7 7
4 4 4 3 4 5 5 3 4 6 5 3 3 5 4 3 4 5 4 5 5 6 5 5 4 4 4 3 2 2 2 2 2 2 3 4 4 5 5 5 5 5 6 6
5 5 3 4 5 3 4 4 2 2 3 1 3 3 2 2 2 3 3 4 4 5 6 6 5 5 5 4 3 3 2 2 2 2 2 3 4 4 4 4 4 4 4 5
7 5 3 3 4 5 5 3 3 1 2 3 4 3 4 1 1 2 3 4 5 6 6 5 5 6 7 5 4 3 3 3 3 3 3 3 3 3 3 3 4 4 4 4
6 7 4 6 6 5 3 3 2 3 2 3 4 3 2 2 1 2 3 4 5 5 6 5 6 7 7 6 5 4 4 4 4 4 3 3 3 3 3 3 3 3 3 3
5 1 5 3 2 2 4 4 3 3 3 3 4 3 2 2 2 3 3 4 4 6 6 5 6 7 8 6 6 6 6 6 5 5 4 4 4 4 3 3 3 3 3 3
5 4 3 2 1 2 3 4 4 4 3 3 3 2 2 1 1 2 3 4 4 5 6 6 6 7 8 6 6 7 7 7 6 6 5 5 4 4 4 4 3 3 3 3
6 4 5 5 2 1 2 2 1 1 1 1 1 1 1 1 1 1 1 3 4 5 6 6 6 6 7 7 7 8 9 8 7 6 6 5 5 4 5 4 3 4 4 3
5 6 6 5 3 0 1 1 2 2 3 3 2 2 2 2 2 2 2 1 3 4 6 6 6 6 6 6 8 9 9 8 6 6 5 6 6 5 8 8 5 7 8 7
1 3 2 4 3 1 2 2 3 3 4 4 4 4 3 3 3 3 3 3 3 3 4 5 5 5 5 5 7 9 10 8 7 7 6 6 6 6 6 7 11 11 11 11
5 5 6 5 4 3 3 4 4 5 6 5 5 5 5 4 5 5 5 5 4 4 4 4 4 5 6 6 7 9 10 9 8 7 7 7 7 7 7 7 6 6 10 13
8 6 5 6 6 5 5 5 6 6 6 6 6 6 6 6 6 7 7 6 5 5 5 5 5 7 7 7 7 8 8 7 7 8 8 8 8 8 8 8 8 7 6 8
10 9 9 9 8 7 6 6 6 6 6 6 7 7 7 6 6 7 8 8 7 7 8 8 8 9 9 8 7 7 7 9 9 8 8 8 8 9 9 9 9 8 8 7
14 12 12 11 9 8 7 6 6 6 6 6 6 6 6 7 7 8 8 8 7 8 9 9 10 10 10 9 8 7 7 7 8 8 9 9 9 9 9 9 9 9 9 8
9 9 10 10 10 9 8 7 7 6 6 6 6 6 7 8 8 8 8 8 8 8 10 12 12 12 10 10 9 7 7 7 7 7 7 8 9 9 10 10 10 11 9 8
11 11 11 10 9 9 8 7 7 7 6 6 6 7 8 8 8 8 8 9 10 10 11 13 14 12 11 12 12 7 8 8 8 7 7 8 8 9 10 10 10 10 10 9
13 12 12 11 9 9 8 7 7 6 6 6 6 7 7 7 7 7 7 8 8 9 10 12 12 11 12 12 13 8 8 8 8 8 8 8 8 9 9 10 10 10 10 10
13 13 12 11 10 8 7 7 6 6 6 5 6 6 6 6 6 6 6 6 8 10 10 10 9 10 11 12 11 8 9 9 9 8 8 8 8 9 9 10 10 10 10 9
12 11 11 10 9 8 6 6 5 5 5 4 4 4 4 5 6 5 6 5 7 10 8 8 9 13 15 14 9 9 10 10 9 9 9 9 9 9 9 10 9 9 9 9
10 10 10 9 8 7 7 5 5 4 3 3 2 3 4 4 4 4 4 5 6 10 8 7 11 15 16 10 9 9 10 11 10 10 10 10 10 10 10 10 10 9 9 9
10 9 9 8 7 7 6 5 4 3 2 2 1 1 2 2 2 3 3 4 6 8 6 7 11 14 13 8 8 9 9 10 10 10 10 10 10 10 10 10 10 10 10 11
9 9 8 8 7 5 5 5 4 3 3 2 1 1 1 1 2 3 4 5 6 7 6 7 10 12 9 8 8 9 8 9 10 10 10 10 10 10 10 10 10 10 10 10
8 7 6 6 4 4 4 4 3 3 2 2 2 1 1 2 2 3 3 5 6 7 6 6 7 8 8 8 9 9 9 9 9 9 10 10 11 11 10 11 13 10 9 9
7 6 5 5 5 5 4 4 4 3 3 3 2 2 2 3 3 4 5 5 5 6 6 6 7 7 7 8 8 9 9 9 9 9 9 10 10 10 10 12 10 10 9 9
Wind_Direction
232 140 204 219 203 201 222 246 266 282 288 299 315 309 290 250 225 222 225 228 233 236 245 249 264 278 296 314 322 325 334 347 354 356 357 354 355 358 1 2 1 5 5 6
197 194 224 240 230 218 230 244 254 273 285 297 317 291 267 234 219 224 226 228 231 232 235 242 250 258 263 285 305 313 331 350 353 349 357 356 354 358 3 1 2 5 6 8
203 176 230 244 225 210 214 220 237 259 290 325 295 285 272 253 227 231 231 227 228 229 228 233 237 244 250 273 280 293 325 347 343 348 356 351 351 358 359 1 6 4 9 9
221 203 233 90 96 199 223 239 235 257 282 288 288 294 273 257 246 236 229 226 222 223 218 223 224 219 226 232 248 279 310 329 344 343 350 348 349 352 351 357 4 4 8 9
232 231 245 180 176 189 212 217 217 248 275 287 286 258 223 209 235 242 226 220 215 215 213 215 215 212 218 224 229 249 279 301 321 329 338 342 346 347 347 352 358 1 10 6
222 240 224 120 119 168 228 197 122 232 276 256 238 260 71 79 210 223 213 202 200 204 209 213 211 210 223 231 233 238 250 267 283 299 312 325 336 338 342 342 344 346 4 2
228 240 243 102 133 180 219 97 70 285 272 228 243 333 26 20 211 207 200 197 197 203 209 214 211 213 228 233 237 235 236 243 247 256 273 297 313 320 325 334 337 340 354 359
209 221 197 124 168 207 18 32 329 300 282 255 265 297 307 286 233 209 198 196 200 207 213 212 213 222 234 239 239 228 229 237 243 251 261 269 278 293 302 311 315 327 335 350
216 204 71 149 201 357 330 296 301 298 299 274 262 271 281 276 245 215 212 204 205 217 222 217 215 227 241 238 232 228 230 236 241 244 244 252 263 268 274 279 296 318 328 337
227 219 185 176 215 290 292 286 297 297 291 262 255 279 286 287 282 238 227 221 216 223 231 230 225 229 243 246 233 233 237 243 240 244 244 238 243 258 266 274 280 289 302 314
226 190 174 182 182 316 306 305 315 344 26 341 297 324 329 319 330 300 251 234 229 234 243 248 239 236 239 239 238 240 244 245 244 242 249 254 243 247 259 262 276 283 294 295
216 178 188 161 138 213 189 81 44 74 80 56 32 17 9 7 5 345 323 279 248 251 257 262 258 252 246 237 238 245 250 250 247 243 238 243 249 240 219 237 238 236 252 273
131 129 134 124 131 137 133 98 81 74 65 57 46 33 27 27 23 14 5 348 307 285 279 280 278 274 272 253 243 246 250 252 249 246 241 238 241 251 253 224 222 233 236 237
161 157 159 159 142 130 127 117 102 86 72 59 49 44 40 38 35 27 12 356 339 326 318 311 303 300 300 283 260 254 256 254 252 247 245 244 242 243 248 257 249 235 219 220
180 189 155 138 135 131 130 129 114 89 73 62 52 45 41 38 35 27 17 8 8 6 356 344 334 326 320 304 282 268 262 259 253 252 247 246 244 243 244 246 250 253 247 209
159 152 149 148 141 134 130 122 106 88 71 61 52 46 43 43 40 34 27 22 22 20 9 1 352 341 332 319 301 283 271 265 261 259 253 247 242 242 242 242 244 247 245 242
159 162 163 157 146 135 120 106 96 87 75 63 53 48 48 48 44 37 29 25 25 22 14 5 354 343 339 333 317 298 288 277 250 254 255 253 248 245 245 244 245 245 245 239
172 159 155 149 142 133 122 110 97 86 75 67 62 57 51 45 39 32 26 25 27 29 20 7 357 346 348 347 332 313 303 296 285 270 264 259 257 254 251 249 248 248 249 233
145 140 136 134 132 127 119 109 99 88 80 74 67 61 54 46 38 31 30 29 23 18 8 360 349 350 354 354 342 323 317 311 303 293 284 275 265 261 257 254 252 250 247 245
137 135 132 129 127 122 116 110 104 93 82 75 71 65 56 45 35 31 34 38 27 6 353 353 352 359 355 354 346 335 332 327 320 313 304 295 285 277 270 264 259 257 252 248
140 138 136 132 127 121 117 116 110 101 90 77 68 61 53 45 35 30 25 27 19 3 353 353 0 1 356 348 343 346 343 339 334 328 321 313 304 296 288 281 273 265 260 256
144 143 141 138 136 131 126 121 115 110 101 88 74 60 50 39 32 34 38 21 6 359 354 2 5 1 352 346 354 356 352 348 343 338 334 327 320 313 306 300 291 283 276 269
147 147 147 148 145 138 134 133 130 125 116 100 77 54 43 31 16 10 15 11 360 354 351 3 356 352 346 349 357 356 355 354 350 345 340 335 330 325 319 313 307 300 292 285
150 150 149 148 149 153 153 147 142 140 139 133 102 39 9 5 12 12 354 348 342 335 339 350 345 346 340 349 354 353 353 352 349 345 341 337 335 332 327 322 317 313 307 300
157 156 157 162 166 167 162 160 166 171 183 190 197 224 282 315 319 328 328 333 335 326 328 338 339 336 335 344 345 343 343 344 342 338 339 339 337 333 330 327 323 318 314 310
167 169 172 178 175 174 179 186 195 198 207 219 234 250 265 271 280 287 296 308 317 318 318 325 331 330 336 338 334 332 331 331 333 334 335 335 334 334 331 330 326 323 319 316
174 175 179 187 191 197 201 206 215 218 223 233 249 263 273 279 282 288 294 300 309 314 318 319 322 325 325 325 324 325 326 326 326 326 327 327 327 326 327 326 323 320 319 316